Weather History for LLBG - December, 2012

Change the Weather History Date:

Sunday, December 9, 2012

  Actual Average Record
Temperature  
Mean Temperature 65 °F -  
Max Temperature 74 °F 64 °F 77 °F (2010)
Min Temperature 56 °F 49 °F 46 °F (1999)
Growing Degree Days 15 (Base 50)    
Moisture  
Dew Point 51 °F    
Average Humidity 66    
Maximum Humidity 82    
Minimum Humidity 26    
Precipitation  
Precipitation 0.00 in - - ()
Sea Level Pressure  
Sea Level Pressure 29.98 in    
Wind  
Wind Speed 3 mph ()    
Max Wind Speed 10 mph    
Max Gust Speed -    
Visibility 6.0 miles    
Events      
Averages and records for this station are not official NWS values.
T = Trace of Precipitation, MM = Missing Value Source: Averaged Metar Reports

Daily Weather History Graph

Daily Weather History Graph

Search for Another Location

Airport or City:

Trip Planner

Search our weather history database for the weather conditions in past years. The results will help you decide how hot, cold, wet, or windy it might be!

Date:

Astronomy

Dec. 09, 2012 Rise Set
Actual Time 6:29 AM IST 4:36 PM IST
Civil Twilight 6:02 AM IST 5:03 PM IST
Nautical Twilight 5:32 AM IST 5:33 PM IST
Astronomical Twilight 5:02 AM IST 6:03 PM IST
Moon 1:50 AM IST (12/9) 1:19 PM IST (12/9)
Length of Visible Light 11h 00m
Length of Day
10h 06m
Waning Crescent, 21% of the Moon is Illuminated
Dec 9
Waning Crescent
Dec 13
New
Dec 20
First Quarter
Dec 28
Full
Jan 5
Last Quarter

Hourly Weather History & Observations

Time (IST) Temp. Dew Point Humidity Pressure Visibility Wind Dir Wind Speed Gust Speed Precip Events Conditions
12:50 AM 59.0 °F 51.8 °F 77% 30.06 in - ENE 2.3 mph - N/A   Clear
1:50 AM 59.0 °F 51.8 °F 77% 30.06 in - NNE 2.3 mph - N/A   Clear
2:00 AM 58 °F 52 °F 74% 30.07 in 6 mi NNE 2.3 mph - -   Partly Cloudy
2:50 AM 57.2 °F 51.8 °F 82% 30.06 in - North 2.3 mph - N/A   Clear
3:50 AM 57.2 °F 51.8 °F 82% 30.06 in - North 1.2 mph - N/A   Clear
4:50 AM 57.2 °F 51.8 °F 82% 30.04 in - North 3.5 mph - N/A   Clear
5:50 AM 57.2 °F 51.8 °F 82% 30.04 in - NE 3.5 mph - N/A   Clear
6:50 AM 59.0 °F 51.8 °F 77% 30.01 in - East 10.4 mph - N/A   Clear
7:50 AM 60.8 °F 51.8 °F 72% 30.04 in - NNW 3.5 mph - N/A   Clear
8:00 AM 61 °F 51 °F 62% 30.04 in 6 mi NNW 3.5 mph - -   Mostly Cloudy
8:50 AM 62.6 °F 51.8 °F 68% 30.04 in - North 1.2 mph - N/A   Clear
9:50 AM 66.2 °F 50.0 °F 56% 30.04 in - North 4.6 mph - N/A   Clear
10:50 AM 68.0 °F 50.0 °F 52% 30.01 in - North 2.3 mph - N/A   Clear
11:50 AM 71.6 °F 50.0 °F 46% 29.98 in - Variable 2.3 mph - N/A   Clear
12:50 PM 71.6 °F 46.4 °F 41% 29.95 in - SW 3.5 mph - N/A   Clear
1:50 PM 73.4 °F 44.6 °F 36% 29.92 in - WSW 2.3 mph - N/A   Clear
2:00 PM 73 °F 45 °F 26% 29.93 in 6 mi WSW 2.3 mph - -   Clear
2:50 PM 71.6 °F 51.8 °F 50% 29.92 in - West 4.6 mph - N/A   Clear
3:50 PM 69.8 °F 53.6 °F 56% 29.92 in - West 5.8 mph - N/A   Clear
4:50 PM 68.0 °F 53.6 °F 60% 29.92 in - NW 2.3 mph - N/A   Clear
5:50 PM 66.2 °F 53.6 °F 64% 29.92 in - Variable 2.3 mph - N/A   Clear
6:50 PM 62.6 °F 53.6 °F 72% 29.92 in - Variable 1.2 mph - N/A   Clear
7:50 PM 62.6 °F 53.6 °F 72% 29.92 in - Variable 2.3 mph - N/A   Clear
8:00 PM 62 °F 54 °F 66% 29.93 in 6 mi 2.3 mph - -   Clear
8:50 PM 60.8 °F 53.6 °F 77% 29.92 in - Variable 1.2 mph - N/A   Clear
9:50 PM 59.0 °F 51.8 °F 77% 29.92 in - Variable 1.2 mph - N/A   Clear
10:50 PM 57.2 °F 51.8 °F 82% 29.92 in - SE 3.5 mph - N/A   Clear
11:50 PM 57.2 °F 50.0 °F 77% 29.89 in - ESE 3.5 mph - N/A   Clear